Regional Weather Roundup
Issued by NWS

Home | Current Version | Previous Version | Text Only | Print | Product List | Glossary Off
Versions: 1 2 3 4 5 6 7 8 9 10 11 12 13 14 15 16 17 18 19 20 21 22 23 24 25 26 27 28 29 30 31 32 33 34 35 36 37 38 39 40 41 42 43 44 45 46 47 48 49 50

000
ASUS43 KMPX 270010
RWRMN
WEATHER ROUNDUP FOR MINNESOTA
NATIONAL WEATHER SERVICE TWIN CITIES/CHANHASSEN MN
700 PM CDT SUN MAR 26 2017


NOTE: "FAIR" INDICATES FEW OR NO CLOUDS BELOW 12,000 FEET WITH NO
SIGNIFICANT WEATHER AND/OR OBSTRUCTIONS TO VISIBILITY. N/A MEANS
CURRENT SKY AND/OR WEATHER CONDITIONS ARE NOT AVAILABLE.

MNZ060>063-068>070-270100-
   Twin Cities Metro

CITY           SKY/WX    TMP DP  RH WIND       PRES   REMARKS
TWIN CITIES    CLOUDY    43  36  76 N7        29.93R
6HR MIN TEMP:  40; 6HR MAX TEMP:  44;

ST PAUL        CLOUDY    42  38  85 N7        29.94R
CRYSTAL        CLOUDY    41  34  76 N7        29.92R
BLAINE         CLOUDY    43  39  87 N7        29.93R
LAKEVILLE      CLOUDY    41  39  93 NW6       29.92R
EDEN PRAIRIE   CLOUDY    42  36  79 N8        29.92R
6HR MIN TEMP:  41; 6HR MAX TEMP:  45;

SOUTH ST PAUL  CLOUDY    42  39  89 N8        29.92R
LAKE ELMO      CLOUDY    41  37  87 NW6       29.93R FOG
$$
MNZ001>005-007-008-013>017-022>024-027-028-270100-
   Northwest Minnesota

CITY           SKY/WX    TMP DP  RH WIND       PRES   REMARKS
BEMIDJI        CLOUDY    45  33  62 NE3       29.92R
HALLOCK        CLEAR     41  37  87 CALM      29.95R
ROSEAU         CLEAR     45  37  76 SW3       29.94R
WARROAD        CLEAR     45  37  76 CALM      29.93F
THIEF RVR FALL PTCLDY   N/A N/A N/A NW3       29.95R
CROOKSTON      PTCLDY    45  39  81 W3        29.95S
FOSSTON        CLOUDY    45  36  70 CALM      29.94R
DETROIT LAKES  PTCLDY    45  36  70 NW5       29.94S
MOORHEAD       PTCLDY    43  37  81 CALM      29.95S
PARK RAPIDS    CLOUDY    46  31  55 SE5       29.91S
MAHNOMEN       CLOUDY    45  38  77 NW3       29.93R
$$
MNZ006-009>011-018-025>026-270100-
   North Central Minnesota

CITY           SKY/WX    TMP DP  RH WIND       PRES   REMARKS
BAUDETTE       CLOUDY    40  33  76 NW5       29.93S
FLAG ISLAND    CLEAR     36  30  80 S3        29.93S
INTL FALLS     CLOUDY    42  31  64 NE3       29.92S
6HR MIN TEMP:  41; 6HR MAX TEMP:  48;

WASKISH        CLOUDY    43  34  70 CALM      29.93S
BIG FORK       PTCLDY    46  34  61 CALM      29.92R
LONGVILLE      CLOUDY    43  32  65 CALM      29.92F
GRAND RAPIDS   PTCLDY    41  32  70 CALM      29.94R
CRANE LAKE     CLOUDY    41  30  65 CALM      29.94R
ORR            MOCLDY    43  28  56 CALM      29.89S
COOK           CLEAR     45  30  57 CALM      29.91S
WALKER         CLOUDY    42  32  68 CALM      29.92S
$$
MNZ012-019>021-037-270100-
   Northeast Minnesota

CITY           SKY/WX    TMP DP  RH WIND       PRES   REMARKS
DULUTH         FOG       33  33 100 CALM      29.92S VSB 1/8
6HR MIN TEMP:  33; 6HR MAX TEMP:  36;

ELY            CLEAR     37  30  75 CALM      29.92R
HIBBING        CLEAR     38  31  76 SE6       29.91S
EVELETH        CLOUDY    40  30  67 CALM      29.93R
DULUTH HARBOR  CLOUDY    34  34 100 CALM      29.97R
TWO HARBORS    CLOUDY    36  30  80 CALM      29.92S
SILVER BAY     CLOUDY    36  34  93 CALM      29.92R FOG
GRAND MARAIS     N/A     35  34  96 CALM      29.95R
G MARAIS ARPRT DRIZZLE   32  28  86 CALM      29.91R
$$
MNZ029>031-032-039>041-046>048-054>057-064-270100-
   West Central Minnesota

CITY           SKY/WX    TMP DP  RH WIND       PRES   REMARKS
FERGUS FALLS   PTCLDY    43  36  75 NW5       29.97S
WHEATON        CLOUDY    45  36  70 N3        29.96S
MORRIS         CLOUDY    45  37  76 NW8       29.93S
ALEXANDRIA     CLOUDY    46  35  65 CALM      29.93S
ELBOW LAKE     CLOUDY    43  37  81 NW6       29.94S
WADENA         CLOUDY    45  34  65 N3        29.92S
GLENWOOD       CLOUDY    45  36  70 CALM      29.94R
APPLETON       CLOUDY    46  37  71 N7        29.94S
BENSON         CLOUDY    48  34  57 N8        29.95S
ORTONVILLE     MOCLDY    45  37  76 N5        29.93F
MADISON        CLOUDY    46  41  81 NW3       29.94S
WILLMAR        CLOUDY    45  37  76 E5        29.95S
$$
MNZ033>034-036-042>043-049>051-058-059-270100-
   Central Minnesota

CITY           SKY/WX    TMP DP  RH WIND       PRES   REMARKS
ST CLOUD       CLOUDY    38  37  97 CALM      29.94S FOG
6HR MIN TEMP:  38; 6HR MAX TEMP:  41;

SAUK CENTRE    CLOUDY    44  35  69 NW5       29.93S
PAYNESVILLE      N/A     42  36  78 CALM      29.94S
AITKIN         CLOUDY    45  32  61 CALM      29.92S
PINE RIVER     CLOUDY    43  34  70 N3        29.96S
BRAINERD       CLOUDY    44  33  65 N3        29.93S
STAPLES        CLOUDY    46  34  61 CALM      29.92S
LONG PRAIRIE   CLOUDY    43  34  70 CALM      29.93S
LITTLE FALLS   CLOUDY    43  32  65 CALM      29.94R
LITCHFIELD     CLOUDY    43  37  81 N3        29.94S
BUFFALO        DRIZZLE   38  37  92 NW5       29.95S
MAPLE LAKE     CLOUDY    39  38  97 N6        29.95R FOG
HUTCHINSON     CLOUDY    41  38  87 N3        29.95R
$$
MNZ037-044-045-052-053-270100-
   East Central Minnesota

CITY           SKY/WX    TMP DP  RH WIND       PRES   REMARKS
PRINCETON      DRIZZLE   39  37  93 CALM      29.95R
MORA           DRIZZLE   34  34 100 CALM      29.96S
CAMBRIDGE      LGT RAIN  39  36  87 N3        29.93R
RUSH CITY      DRIZZLE   37  35  94 N6        29.94R
MOOSE LAKE     CLOUDY    36  34  93 CALM      29.92S
CLOQUET        FOG       34  32  93 CALM      29.93S VSB 1/2
MCGREGOR       CLOUDY    41  34  75 CALM      29.93S
$$
MNZ071>073-080-081-089-090-097-098-270100-
   Southwest Minnesota

CITY           SKY/WX    TMP DP  RH WIND       PRES   REMARKS
MONTEVIDEO     CLOUDY    46  37  71 N3        29.95S
GRANITE FALLS  CLOUDY    46  39  77 CALM      29.95S
CANBY          CLOUDY    44  39  82 CALM      29.95S
MARSHALL       CLOUDY    43  39  86 NW9       29.94S
REDWOOD FALLS  CLOUDY    45  36  70 N6        29.93S
OLIVIA         CLOUDY    43  36  75 N5        29.93S
PIPESTONE      CLOUDY    43  36  75 NE8       29.91F
WINDOM         MOCLDY    43  39  87 NW9       29.92R
WORTHINGTON    CLOUDY    41  38  89 N10       29.92S
JACKSON        CLOUDY    41  37  87 VRB6      29.92R
TRACY          CLOUDY    43  39  86 N5        29.94R
SLAYTON        CLOUDY    40  37  91 N6        29.93S
$$
MNZ065>067-074>077-082>085-091>093-270100-
   South Central Minnesota

CITY           SKY/WX    TMP DP  RH WIND       PRES   REMARKS
MANKATO        CLOUDY    41  38  89 NW8       29.93R
NEW ULM        CLOUDY    41  37  87 N3        29.93S
ST JAMES       CLOUDY    43  37  81 CALM      29.93S
FAIRMONT       CLOUDY    41  38  89 N6        29.92S
GLENCOE        CLOUDY    40  40  99 N3        29.93S FOG
FARIBAULT      CLOUDY    43  39  87 NW3       29.92S
OWATONNA       CLOUDY    41  39  93 NW6       29.92R FOG
WASECA         CLOUDY    39  37  93 NW8       29.93R FOG
ALBERT LEA     CLOUDY    41  39  93 N5        29.90S FOG
$$
MNZ078>079-086>088-094>096-270100-
   Southeast Minnesota

CITY           SKY/WX    TMP DP  RH WIND       PRES   REMARKS
ROCHESTER      LGT RAIN  40  39  97 N7        29.89S
6HR MIN TEMP:  39; 6HR MAX TEMP:  41; 6HR PCP: TRACE;

RED WING       CLOUDY    43  39  87 CALM      29.91R
STANTON        CLOUDY    42  39  89 N3        29.91R FOG
DODGE CENTER   CLOUDY    39  37  93 NW7       29.91R
WINONA         CLOUDY    41  37  87 N7        29.91S
AUSTIN         CLOUDY    41  39  93 N6        29.90R FOG
PRESTON        CLOUDY    39  37  92 N8        29.89F
$$
ABBREVIATIONS USED IN REMARKS
   TC - TEMPERATURES IN CELSIUS
  WCI - WIND CHILL INDEX
   HX - HEAT INDEX
  VSB - VISIBILITY
$$




USA.gov is the U.S. government's official web portal to all federal, state and local government web resources and services.